User: anonymous   Login
Location: Fort Wayne
(41.1310°N, 85.1290°W)
Time: 15:10:58
(UTC-05:00)
Language:

Tiros 1 despin weight - Orbit

View from above orbital plane
View from above orbital plane
View from above satellite
View from above satellite

Ground track
Ground track

The orbit data is extracted from the following two-line orbital elements,

1 00115U 60002D   17060.05984937  .00000114  00000-0  41077-4 0  9993
2 00115  48.1670 303.4393 0035240 342.3073  17.6610 14.83015491 34178
Epoch (UTC): 01 March 2017 01:26:10
Eccentricity: 0.0035240
inclination: 48.1670°
perigee height: 595 km
apogee height: 644 km
right ascension of ascending node: 303.4393°
argument of perigee: 342.3073°
revolutions per day: 14.83015491
mean anomaly at epoch: 17.6610°
orbit number at epoch: 3417

The dashed part of the orbit path shows where the satellite is in the earth's shadow,  

DLR